TimeCST,TemperatureF,Dew PointF,Humidity,Sea Level PressureIn,VisibilityMPH,Wind Direction,Wind SpeedMPH,Gust SpeedMPH,PrecipitationIn,Events,Conditions,WindDirDegrees,DateUTC
12:15 AM,17.6,15.8,93,30.42,7.0,Calm,Calm,-,N/A,,Scattered Clouds,0,2013-03-08 06:15:00
12:35 AM,19.4,17.6,93,30.42,10.0,Calm,Calm,-,N/A,,Clear,0,2013-03-08 06:35:00
12:55 AM,19.4,17.6,93,30.42,7.0,Calm,Calm,-,N/A,,Clear,0,2013-03-08 06:55:00
1:15 AM,17.6,17.6,100,30.43,10.0,Calm,Calm,-,N/A,,Clear,0,2013-03-08 07:15:00
1:35 AM,17.6,17.6,100,30.44,7.0,Calm,Calm,-,N/A,,Scattered Clouds,0,2013-03-08 07:35:00
1:55 AM,14.0,14.0,100,30.45,7.0,Calm,Calm,-,N/A,,Mostly Cloudy,0,2013-03-08 07:55:00
2:15 AM,14.0,14.0,100,30.45,5.0,Calm,Calm,-,N/A,,Scattered Clouds,0,2013-03-08 08:15:00
2:35 AM,14.0,12.2,93,30.45,5.0,Calm,Calm,-,N/A,,Clear,0,2013-03-08 08:35:00
2:55 AM,14.0,12.2,93,30.45,5.0,Calm,Calm,-,N/A,,Clear,0,2013-03-08 08:55:00
3:15 AM,12.2,10.4,92,30.44,4.0,Calm,Calm,-,N/A,,Clear,0,2013-03-08 09:15:00
3:35 AM,12.2,12.2,100,30.43,4.0,Calm,Calm,-,N/A,,Clear,0,2013-03-08 09:35:00
3:55 AM,15.8,14.0,93,30.44,4.0,Calm,Calm,-,N/A,,Clear,0,2013-03-08 09:55:00
4:15 AM,14.0,14.0,100,30.43,5.0,Calm,Calm,-,N/A,,Clear,0,2013-03-08 10:15:00
4:35 AM,14.0,12.2,93,30.44,5.0,Calm,Calm,-,N/A,,Clear,0,2013-03-08 10:35:00
5:45 AM,12.2,10.4,92,30.45,5.0,Calm,Calm,-,N/A,,Clear,0,2013-03-08 11:45:00
6:45 AM,12.2,10.4,92,30.46,7.0,Calm,Calm,-,N/A,,Clear,0,2013-03-08 12:45:00
7:45 AM,15.8,14.0,93,30.46,10.0,Calm,Calm,-,N/A,,Clear,0,2013-03-08 13:45:00
8:45 AM,24.8,24.8,100,30.46,10.0,ESE,5.8,-,N/A,,Clear,120,2013-03-08 14:45:00
9:45 AM,30.2,24.8,80,30.46,10.0,SE,9.2,-,N/A,,Clear,130,2013-03-08 15:45:00
10:45 AM,30.2,24.8,80,30.46,10.0,SE,10.4,-,N/A,,Scattered Clouds,140,2013-03-08 16:45:00
11:45 AM,33.8,24.8,70,30.44,10.0,SSE,9.2,-,N/A,,Partly Cloudy,150,2013-03-08 17:45:00
12:45 PM,35.6,24.8,65,30.42,10.0,SSE,6.9,-,N/A,,Clear,150,2013-03-08 18:45:00
1:45 PM,35.6,24.8,65,30.40,10.0,SSE,6.9,-,N/A,,Clear,150,2013-03-08 19:45:00
2:47 PM,37.4,26.6,65,30.38,10.0,SE,6.9,-,N/A,,Clear,140,2013-03-08 20:47:00
3:45 PM,35.6,26.6,70,30.37,10.0,SE,5.8,-,N/A,,Clear,140,2013-03-08 21:45:00
4:45 PM,35.6,26.6,70,30.36,10.0,SE,6.9,-,N/A,,Clear,130,2013-03-08 22:45:00
5:45 PM,33.8,26.6,75,30.37,10.0,SE,6.9,-,N/A,,Scattered Clouds,140,2013-03-08 23:45:00
6:45 PM,30.2,26.6,86,30.38,10.0,SE,4.6,-,N/A,,Scattered Clouds,130,2013-03-09 00:45:00
7:45 PM,28.4,24.8,86,30.37,10.0,SSE,5.8,-,N/A,,Scattered Clouds,150,2013-03-09 01:45:00
8:15 PM,30.2,24.8,80,30.36,10.0,SE,4.6,-,N/A,,Clear,130,2013-03-09 02:15:00
8:35 PM,30.2,24.8,80,30.35,10.0,ESE,5.8,-,N/A,,Clear,120,2013-03-09 02:35:00
8:45 PM,28.4,24.8,86,30.35,10.0,ESE,5.8,-,N/A,,Scattered Clouds,120,2013-03-09 02:45:00
8:55 PM,30.2,24.8,80,30.36,10.0,SE,5.8,-,N/A,,Clear,130,2013-03-09 02:55:00
9:15 PM,30.2,23.0,75,30.34,10.0,SE,6.9,-,N/A,,Clear,140,2013-03-09 03:15:00
9:35 PM,30.2,23.0,75,30.34,10.0,SSE,9.2,-,N/A,,Clear,150,2013-03-09 03:35:00
9:55 PM,30.2,23.0,75,30.34,10.0,SSE,6.9,-,N/A,,Clear,160,2013-03-09 03:55:00
10:15 PM,28.4,23.0,80,30.34,10.0,SSE,8.1,-,N/A,,Clear,160,2013-03-09 04:15:00
10:35 PM,28.4,23.0,80,30.33,10.0,SSE,6.9,-,N/A,,Clear,160,2013-03-09 04:35:00
10:55 PM,30.2,23.0,75,30.31,10.0,SSE,8.1,-,N/A,,Clear,150,2013-03-09 04:55:00
11:15 PM,30.2,23.0,75,30.30,10.0,SSE,8.1,-,N/A,,Clear,160,2013-03-09 05:15:00
11:35 PM,30.2,23.0,75,30.29,10.0,SE,6.9,-,N/A,,Clear,140,2013-03-09 05:35:00
11:55 PM,30.2,23.0,75,30.29,10.0,SE,6.9,-,N/A,,Clear,140,2013-03-09 05:55:00